Location: L�gaud
(45.7115°N, 1.7775°E)
Time: 17:25:33
(UTC+00:00)

MetOp-A - Pass Details

Date: 03 March 2021
Orbit: 819 x 821 km, 98.5° (Epoch: 12 April)

Event Time Altitude Azimuth Distance (km) Brightness Sun altitude
Exits shadow 19:27:03 - 162° (SSE) 2,631 6.5 -19.0°
Reaches altitude 10° 19:27:36 10° 162° (SSE) 2,412 6.3 -19.1°
Maximum altitude 19:32:58 86° 74° (ENE) 830 4.0 -20.0°
Drops below altitude 10° 19:38:21 10° 347° (NNW) 2,429 6.9 -20.9°
Sets 19:40:43 0° 347° (NNW) 3,366 7.7 -21.3°
